Cortez, CO

7:54 AM MDT on August 29, 2016 (GMT -0600)
Cortez Municipal

Weather History for KCEZ - November, 2013

Change the Weather History Date:

Tuesday, November 12, 2013

  Actual Average Record
Temperature  
Mean Temperature 44 °F 38 °F  
Max Temperature 65 °F 53 °F 66 °F (1999)
Min Temperature 23 °F 23 °F 10 °F (2012)
Degree Days  
Heating Degree Days 21 27  
Month to date heating degree days 299 295  
Since 1 July heating degree days 979 977  
Cooling Degree Days 0 0  
Month to date cooling degree days 0 0  
Year to date cooling degree days 667 426  
Moisture  
Dew Point 21 °F    
Average Humidity 47    
Maximum Humidity 74    
Minimum Humidity 19    
Precipitation  
Precipitation 0.00 in 0.03 in 0.22 in (2003)
Month to date precipitation T 0.53  
Year to date precipitation 12.32 11.95  
Sea Level Pressure  
Sea Level Pressure 30.45 in    
Wind  
Wind Speed 6 mph (ESE)    
Max Wind Speed 15 mph    
Max Gust Speed 18 mph    
Visibility 10 miles    
Events      
T = Trace of Precipitation, MM = Missing Value Source: NWS Daily Summary

Daily Weather History Graph

Daily Weather History Graph

Search for Another Location

Airport or City:

Trip Planner

Search our weather history database for the weather conditions in past years. The results will help you decide how hot, cold, wet, or windy it might be!

Date:

Astronomy

Nov. 12, 2013 Rise Set
Actual Time 6:50 AM MST 5:06 PM MST
Civil Twilight 6:23 AM MST 5:33 PM MST
Nautical Twilight 5:51 AM MST 6:05 PM MST
Astronomical Twilight 5:21 AM MST 6:35 PM MST
Moon 2:16 PM MST (11/12) 1:50 AM MST (11/12)
Length of Visible Light 11h 10m
Length of Day
10h 15m
Waxing Gibbous, 77% of the Moon is Illuminated
Nov 12
Waxing Gibbous
Nov 17
Full
Nov 25
Last Quarter
Dec 2
New
Dec 9
First Quarter

Hourly Weather History & Observations

Time (MST) Temp. Windchill Dew Point Humidity Pressure Visibility Wind Dir Wind Speed Gust Speed Precip Events Conditions
12:53 AM 25.0 °F 19.3 °F 17.1 °F 72% 30.39 in 10.0 mi ESE 4.6 mph - N/A   Clear
1:53 AM 25.0 °F 18.1 °F 18.0 °F 75% 30.40 in 10.0 mi ENE 5.8 mph - N/A   Clear
2:53 AM 26.1 °F 18.4 °F 18.0 °F 71% 30.41 in 10.0 mi ENE 6.9 mph - N/A   Clear
3:53 AM 24.1 °F - 17.1 °F 75% 30.44 in 10.0 mi Calm Calm - N/A   Clear
4:53 AM 25.0 °F 16.3 °F 17.1 °F 72% 30.46 in 10.0 mi NE 8.1 mph - N/A   Clear
5:53 AM 25.0 °F 18.1 °F 17.1 °F 72% 30.51 in 10.0 mi East 5.8 mph - N/A   Clear
6:53 AM 23.0 °F 15.8 °F 16.0 °F 74% 30.55 in 10.0 mi ENE 5.8 mph - N/A   Clear
7:53 AM 30.0 °F 25.2 °F 19.0 °F 64% 30.53 in 10.0 mi East 4.6 mph - N/A   Clear
8:53 AM 44.1 °F - 21.0 °F 40% 30.54 in 10.0 mi Calm Calm - N/A   Clear
9:53 AM 53.1 °F - 21.9 °F 30% 30.50 in 10.0 mi Calm Calm - N/A   Clear
10:53 AM 57.9 °F - 19.9 °F 23% 30.48 in 10.0 mi SW 5.8 mph - N/A   Clear
11:53 AM 62.1 °F - 23.0 °F 22% 30.45 in 10.0 mi SW 12.7 mph - N/A   Clear
12:53 PM 64.0 °F - 23.0 °F 21% 30.42 in 10.0 mi SSW 12.7 mph - N/A   Clear
1:53 PM 64.0 °F - 23.0 °F 21% 30.41 in 10.0 mi WSW 10.4 mph - N/A   Clear
2:53 PM 64.0 °F - 21.9 °F 20% 30.39 in 10.0 mi SW 11.5 mph - N/A   Clear
3:53 PM 63.0 °F - 21.9 °F 21% 30.39 in 10.0 mi SW 10.4 mph - N/A   Clear
4:53 PM 57.9 °F - 23.0 °F 26% 30.39 in 10.0 mi WSW 4.6 mph - N/A   Clear
5:53 PM 43.0 °F - 24.1 °F 47% 30.47 in 10.0 mi Calm Calm - N/A   Clear
6:53 PM 39.9 °F 33.4 °F 23.0 °F 51% 30.50 in 10.0 mi ENE 10.4 mph - N/A   Clear
7:53 PM 37.9 °F 32.1 °F 23.0 °F 55% 30.49 in 10.0 mi ENE 8.1 mph - N/A   Clear
8:53 PM 34.0 °F 27.2 °F 23.0 °F 64% 30.46 in 10.0 mi ENE 8.1 mph - N/A   Clear
9:53 PM 33.1 °F 27.7 °F 21.9 °F 64% 30.43 in 10.0 mi East 5.8 mph - N/A   Clear
10:53 PM 28.9 °F - 19.9 °F 69% 30.43 in 10.0 mi Calm Calm - N/A   Clear
11:53 PM 27.0 °F - 19.9 °F 75% 30.43 in 10.0 mi Calm Calm - N/A   Clear